View from above orbital plane
|
View from above satellite
|
Ground track
|
The orbit data is extracted from the following two-line orbital elements,
1 24279U 96046C 21060.37219201 -.00000004 00000-0 36631-4 0 9991
2 24279 98.7125 214.9477 0300835 77.5315 303.5596 13.47174876206163
Epoch (UTC): | 01 March 2021 08:55:57 |
Eccentricity: | 0.0300835 |
inclination: | 98.7125° |
perigee height: | 858 km |
apogee height: | 1307 km |
right ascension of ascending node: | 214.9477° |
argument of perigee: | 77.5315° |
revolutions per day: | 13.47174876 |
mean anomaly at epoch: | 303.5596° |
orbit number at epoch: | 20616 |
The dashed part of the orbit path shows where the satellite is in the earth's shadow,
|
|